DateTimeUTC,F1_A11,F1_S11,BsB_S11,BsG_S11,BsR_S11,BbsB_S11,BbsG_S11,BbsR_S11,BaB_A11,BaG_A11,BaR_A11,Tu_S11,T_S11,Uu_S11,U_S11,P_S11,T1_A11
2021-12-06T12:00:00Z,00000200,21000000,,,,,,,-000.11,-000.30,-000.19,20.0,27.0,,00.0,0632.6,31.2
2021-12-06T12:01:00Z,00000200,21000000,,,,,,,0000.17,-000.51,-000.39,20.0,27.0,,00.0,0632.6,31.2
2021-12-06T12:02:00Z,00000200,21000000,,,,,,,-000.46,0000.60,-000.01,20.0,27.0,,00.0,0632.6,31.2
2021-12-06T12:03:00Z,00000200,61000000,,,,,,,-000.08,-000.47,-000.19,20.0,27.0,,00.0,0632.6,31.2
2021-12-06T12:04:00Z,00000200,41000000,0000.37,0000.16,0000.02,0000.20,0000.33,0000.23,-000.02,-000.22,-000.11,20.1,26.8,,00.0,0633.5,31.1
2021-12-06T12:05:00Z,00000200,01000000,-000.56,-000.09,-000.27,-000.29,-000.16,0000.41,-000.12,0000.14,-000.06,20.1,26.8,,00.0,0633.5,31.1
2021-12-06T12:06:00Z,00000200,01000000,0000.58,-000.10,-000.14,-000.06,0000.05,0000.53,0000.35,-000.22,0000.23,20.1,26.7,,00.0,0633.6,31.1
2021-12-06T12:07:00Z,00000200,01000000,-000.18,-000.32,0000.15,0000.24,-000.04,0000.35,-000.15,0000.29,-000.07,20.1,26.7,,00.0,0633.6,31.1
2021-12-06T12:08:00Z,00000200,01000000,0000.07,0000.05,0000.24,-000.44,0000.17,0000.10,-000.44,0000.16,0000.06,20.1,26.7,,00.0,0633.6,31.2
2021-12-06T12:09:00Z,00000200,01000000,0000.17,0000.14,0000.06,-000.26,-000.01,0000.22,0000.38,-000.31,-000.16,20.1,26.7,,00.0,0633.6,31.2
2021-12-06T12:10:00Z,00000200,01000000,0000.57,-000.09,-000.09,-000.30,0000.29,0000.18,0000.23,0000.06,0000.07,20.2,26.8,,00.0,0633.6,31.2
2021-12-06T12:11:00Z,00000200,01000000,0000.41,0000.14,0000.30,-000.08,-000.03,0000.27,-000.14,0000.04,0000.53,20.2,26.8,,00.0,0633.6,31.2
2021-12-06T12:12:00Z,00000200,01000000,0000.55,0000.17,-000.49,-000.58,-000.17,-000.21,0000.30,0000.03,-000.18,20.3,26.8,,00.0,0633.6,31.2
2021-12-06T12:13:00Z,00000200,01000000,0000.39,0000.09,0000.25,0000.74,0000.13,0000.25,-000.26,0000.16,-000.02,20.3,26.9,,00.0,0633.6,31.2
2021-12-06T12:14:00Z,00000200,01000000,0000.10,-000.03,-000.10,-000.19,0000.01,0000.29,0000.09,-000.00,-000.18,20.4,26.9,,00.0,0633.6,31.2
2021-12-06T12:15:00Z,00000200,01000000,0000.39,-000.37,-000.03,0000.50,0000.29,-000.05,-000.20,-000.21,0000.06,20.4,26.9,,00.0,0633.7,31.2
2021-12-06T12:16:00Z,00000200,01000000,-000.19,0000.03,-000.14,-000.15,0000.21,0000.17,0000.10,-000.16,0000.11,20.5,27.0,,00.0,0633.7,31.2
2021-12-06T12:17:00Z,00000200,01000000,0001.06,0000.10,0000.32,-000.50,-000.17,0000.35,-000.11,0000.44,-000.20,20.5,27.0,,00.0,0633.7,31.2
2021-12-06T12:18:00Z,00000200,01000000,-000.00,0000.02,0000.16,-000.26,-000.15,0000.41,0000.05,0000.19,0000.26,20.4,27.0,,00.0,0633.7,31.2
2021-12-06T12:19:00Z,00000200,01000000,0000.05,0000.04,0000.09,0000.50,0000.09,0000.27,0000.23,0000.04,0000.11,20.4,26.9,,00.0,0633.7,31.2
2021-12-06T12:20:00Z,00000200,01000000,0000.46,-000.43,-000.01,-000.35,-000.05,0000.19,-000.33,-000.56,-000.30,20.4,26.9,,00.0,0633.7,31.2
2021-12-06T12:21:00Z,00000200,01000000,-000.38,0000.13,-000.02,-000.23,-000.29,0000.13,0000.05,0000.40,-000.06,20.4,26.9,,00.0,0633.7,31.2
2021-12-06T12:22:00Z,00000200,01000000,0000.71,0000.08,0000.08,-000.50,0000.09,0000.09,0000.26,0000.00,0000.23,20.4,26.9,,00.0,0633.7,31.2
2021-12-06T12:23:00Z,00000200,01000000,0000.26,-000.02,0000.11,-000.60,0000.20,0000.08,-000.01,-000.15,-000.15,20.4,26.9,,00.0,0633.7,31.2
2021-12-06T12:24:00Z,00000200,01000000,-000.45,0000.09,0000.18,-000.03,0000.20,0000.28,-000.16,-000.23,0000.02,20.4,26.9,,00.0,0633.7,31.2
2021-12-06T12:25:00Z,00000200,01000000,0000.79,-000.11,0000.23,-000.12,0000.18,0000.56,0000.40,0000.35,0000.34,20.4,27.0,,00.0,0633.7,31.2
2021-12-06T12:26:00Z,00000200,01000000,0000.10,-000.15,-000.25,-000.55,0000.21,0000.15,-000.04,0000.13,-000.01,20.5,27.0,,00.0,0633.7,31.2
2021-12-06T12:27:00Z,00000200,01000000,-000.71,-000.06,0000.38,0000.07,0000.30,0000.08,0000.10,0000.08,-000.17,20.5,27.0,,00.0,0633.7,31.3
2021-12-06T12:28:00Z,00000200,01000000,0000.89,-000.17,0000.16,0000.14,-000.17,0000.20,-000.09,0000.07,0000.20,20.6,27.1,,00.0,0633.8,31.3
2021-12-06T12:29:00Z,00000200,01000000,0000.38,-000.11,0000.19,-000.35,0000.15,0000.25,0000.23,0000.80,-000.10,20.7,27.1,,00.0,0633.8,31.3
2021-12-06T12:30:00Z,00000200,01000000,-000.17,-000.02,0000.45,-000.05,0000.03,0000.81,-000.29,-000.89,0000.44,20.7,27.2,,00.0,0633.8,31.3
2021-12-06T12:31:00Z,00000200,01000000,0000.09,0000.21,0000.42,-000.36,0000.04,0000.37,0000.06,0000.37,-000.09,20.8,27.2,,00.0,0633.8,31.3
2021-12-06T12:32:00Z,00000200,01000000,0000.96,0000.01,-000.29,0000.05,0000.26,-000.20,-000.20,-000.32,0000.06,20.8,27.2,,00.0,0633.8,31.4
2021-12-06T12:33:00Z,00000200,01000000,0000.41,-000.05,-000.09,0000.29,-000.05,0000.09,0000.25,-000.08,0000.01,20.9,27.3,,00.0,0633.8,31.4
2021-12-06T12:34:00Z,00000200,01000000,-000.02,-000.07,-000.16,0000.13,0000.16,-000.19,-000.01,0000.21,-000.08,20.9,27.3,,00.0,0633.8,31.4
2021-12-06T12:35:00Z,00000200,01000000,0000.54,-000.37,0000.18,-000.04,0000.32,0000.16,0000.04,-000.08,-000.10,20.8,27.3,,00.0,0633.8,31.4
2021-12-06T12:36:00Z,00000200,01000000,-000.24,0000.24,-000.29,-000.97,-000.11,0000.30,0000.08,0000.25,0000.03,20.8,27.2,,00.0,0633.8,31.4
2021-12-06T12:37:00Z,00000200,01000000,-000.34,0000.16,0000.34,-000.34,0000.08,0000.24,0000.22,0000.01,0000.43,20.8,27.2,,00.0,0633.8,31.4
2021-12-06T12:38:00Z,00000200,01000000,0000.17,-000.05,-000.08,0000.19,0000.07,0000.15,-000.10,-000.04,-000.24,20.9,27.3,,00.0,0633.8,31.4
2021-12-06T12:39:00Z,00000200,01000000,0000.27,-000.03,0000.41,-001.16,0000.06,0000.28,0000.32,0000.22,0000.22,20.9,27.3,,00.0,0633.9,31.4
2021-12-06T12:40:00Z,00000200,01000000,0000.27,0000.21,0000.40,-000.53,0000.05,0000.17,-000.01,0000.07,0000.21,21.0,27.3,,00.0,0633.9,31.4
2021-12-06T12:41:00Z,00000200,01000000,-000.24,-000.00,0000.11,0000.19,0000.04,0000.47,0000.08,-000.13,-000.35,21.1,27.4,,00.0,0633.9,31.4
2021-12-06T12:42:00Z,00000200,01000000,0000.19,0000.09,0000.02,0000.10,0000.05,0000.43,-000.13,0000.11,0000.16,21.2,27.4,,00.0,0634.0,31.4
2021-12-06T12:43:00Z,00000200,01000000,0000.38,-000.01,-000.01,0000.02,0000.08,-000.06,0000.16,0000.02,0000.10,21.2,27.5,,00.0,0634.0,31.5
2021-12-06T12:44:00Z,00000200,01000000,-000.01,0000.22,0000.31,-000.35,0000.15,0000.01,0000.25,0000.65,-000.15,21.3,27.5,,00.0,0634.0,31.5
2021-12-06T12:45:00Z,00000200,01000000,-000.09,0000.04,0000.01,-000.12,-000.06,0000.49,-000.57,-000.53,-000.05,21.3,27.5,,00.0,0634.0,31.5
2021-12-06T12:46:00Z,00000200,01000000,-000.25,0000.46,0000.09,-000.51,0000.24,0000.27,0000.30,0000.10,0000.21,21.2,27.5,,00.0,0634.0,31.5
2021-12-06T12:47:00Z,00000200,01000000,0000.11,-000.01,0000.48,0000.06,0000.05,0000.26,0000.12,-000.04,-000.14,21.2,27.5,,00.0,0634.0,31.5
2021-12-06T12:48:00Z,00000200,01000000,0000.06,0000.19,-000.25,-000.74,-000.19,0000.02,0000.09,0000.30,0000.36,21.1,27.5,,00.0,0634.0,31.4
2021-12-06T12:49:00Z,00000200,01000000,0000.40,0000.23,-000.12,0000.21,0000.17,-000.06,0000.27,0000.10,-000.25,21.1,27.5,,00.0,0634.0,31.4
2021-12-06T12:50:00Z,00000200,01000000,0000.62,0000.19,0000.23,0000.44,0000.06,0000.48,-000.07,-000.11,0000.03,21.0,27.4,,00.0,0633.9,31.4
2021-12-06T12:51:00Z,00000200,01000000,-000.15,0000.40,0000.00,0000.14,0000.02,0000.09,0000.29,0000.17,0000.43,21.0,27.4,,00.0,0633.9,31.3
2021-12-06T12:52:00Z,00000200,01000000,0000.65,-000.09,0000.15,-000.36,-000.03,0000.46,-000.04,0000.05,-000.05,20.9,27.4,,00.0,0633.9,31.3
2021-12-06T12:53:00Z,00000200,01000000,0000.06,0000.33,0000.06,0000.02,-000.04,-000.05,0000.57,0000.24,0000.24,20.9,27.4,,00.0,0633.9,31.3
2021-12-06T12:54:00Z,00000200,01000000,0000.63,0000.19,0000.17,-000.14,-000.18,0000.20,-000.48,-000.09,0000.08,20.9,27.4,,00.0,0633.9,31.3
2021-12-06T12:55:00Z,00000200,01000000,0000.62,-000.25,0000.33,-000.43,0000.40,0000.67,0000.30,0000.48,0000.03,21.0,27.4,,00.0,0633.9,31.3
2021-12-06T12:56:00Z,00000200,01000000,0000.35,0000.13,-000.45,-000.87,-000.08,0000.32,0000.14,-000.19,0000.12,20.9,27.4,,00.0,0633.9,31.3
2021-12-06T12:57:00Z,00000200,41000000,,,,,,,0000.93,0000.85,0000.58,20.9,27.4,,00.0,0633.8,31.3
2021-12-06T12:58:00Z,00000200,61000000,,,,,,,-000.52,-000.50,-000.43,20.5,27.4,,00.0,0632.9,31.2
2021-12-06T12:59:00Z,00000200,21000000,,,,,,,-000.02,-000.02,-000.35,20.4,27.5,,00.0,0632.9,31.2
